Observations for Trim Patrick St
| Time | AQI | Temp °C | Hum % | Pres Pa | CO μg/m³ | H₂S μg/m³ | NO μg/m³ | NO₂ μg/m³ | O₃ μg/m³ | SO₂ μg/m³ | PM1 μg/m³ | PM2.5 μg/m³ | PM10 μg/m³ |
|---|---|---|---|---|---|---|---|---|---|---|---|---|---|
| Monday 3 August 2026 | |||||||||||||
| 03:59 | 1 | 15.4 | 79 | 38,460 | 0.2 | 0 | 1.92 | 14.8 | 32.24 | 0 | 5.43 | 8.81 | 9.69 |
| 03:58 | 1 | 15.4 | 79 | 38,460 | 0.2 | 0 | 1.92 | 12.64 | 35.4 | 0 | 4.57 | 8.81 | 9.69 |
| 03:57 | 1 | 15.4 | 79 | 38,460 | 0.2 | 0 | 1.91 | 14.11 | 38.38 | 0 | 3.71 | 7.4 | 8.14 |
| 03:56 | 1 | 15.4 | 79 | 38,460 | 0.19 | 0 | 1.86 | 10.19 | 39.56 | 0 | 4.57 | 8.8 | 9.68 |
| 03:55 | 1 | 15.4 | 79 | 38,460 | 0.21 | 0 | 1.91 | 13.15 | 38.26 | 0 | 5.43 | 8.8 | 9.68 |
| 03:53 | 1 | 15.4 | 79 | 38,460 | 0.2 | 0 | 1.89 | 10.09 | 41.71 | 0 | 4.57 | 7.4 | 8.14 |
| 03:50 | 1 | 15.4 | 79 | 38,460 | 0.19 | 0 | 1.83 | 15.07 | 43.46 | 0 | 4.57 | 8.8 | 9.68 |
| 03:49 | 1 | 15.4 | 79 | 38,460 | 0.2 | 0 | 1.81 | 10.99 | 30.95 | 0 | 5.43 | 8.8 | 9.68 |
| 03:48 | 1 | 15.4 | 79 | 38,460 | 0.2 | 0 | 1.78 | 13.54 | 46 | 0 | 6.29 | 10.2 | 11.22 |
| 03:47 | 1 | 15.4 | 79 | 38,460 | 0.2 | 0 | 1.92 | 12.24 | 39.08 | 0 | 4.57 | 8.09 | 8.9 |
| 03:44 | 1 | 15.4 | 79 | 38,460 | 0.21 | 0 | 1.93 | 14.19 | 20.72 | 0 | 5.43 | 8.79 | 9.67 |
| 03:40 | 1 | 15.3 | 79 | 38,460 | 0.21 | 0 | 1.92 | 12.34 | 32.98 | 0 | 4.57 | 7.38 | 8.12 |
| 03:39 | 1 | 15.3 | 79 | 38,460 | 0.21 | 0 | 1.92 | 13.41 | 43.96 | 0 | 5.43 | 8.07 | 8.88 |
| 03:37 | 1 | 15.3 | 80 | 38,460 | 0.21 | 0 | 1.91 | 12.21 | 43.46 | 0 | 6.29 | 8.76 | 9.63 |
| 03:34 | 1 | 15.3 | 80 | 38,460 | 0.21 | 0 | 1.93 | 10.57 | 35.02 | 0 | 3.71 | 9.45 | 10.4 |
| 03:33 | 1 | 15.3 | 80 | 38,460 | 0.21 | 0 | 1.95 | 18.01 | 41.75 | 0 | 4.57 | 8.74 | 9.62 |
| 03:32 | 1 | 15.3 | 80 | 38,460 | 0.22 | 0 | 1.94 | 9.95 | 33.65 | 0 | 4.57 | 8.04 | 8.85 |
| 03:31 | 1 | 15.3 | 80 | 38,460 | 0.2 | 0 | 1.94 | 11.63 | 31.41 | 0 | 3.71 | 8.04 | 8.84 |
| 03:30 | 1 | 15.3 | 80 | 38,460 | 0.21 | 0 | 1.97 | 11.47 | 35.63 | 0 | 3.71 | 6.63 | 7.3 |
| 03:29 | 1 | 15.3 | 80 | 38,460 | 0.21 | 0 | 1.96 | 14.5 | 25.55 | 0 | 5.43 | 8.72 | 9.59 |